RH
8 13 15 13 16 21 21 22 38 50 42 46 47 49 59 65 70 64 62 54 40 38 38 41 31 28 37 38 57 57 57 58 58 47 44 40 39 39 36 35 48 50 59 50
8 11 11 10 12 20 18 18 30 30 37 39 46 41 50 56 52 57 67 50 50 32 40 37 42 28 29 38 58 67 63 67 53 45 47 41 40 37 46 61 48 48 47 50
8 8 7 12 18 19 15 20 31 34 46 32 39 43 51 50 52 57 64 52 52 48 61 38 46 29 29 36 45 55 63 65 59 53 44 45 44 56 66 59 42 45 47 47
7 7 12 15 15 14 15 16 23 27 28 48 33 42 52 50 57 70 70 49 39 41 33 37 38 36 29 34 36 52 59 62 58 57 70 68 49 47 41 41 42 46 49 48
9 10 13 14 13 11 24 20 21 22 25 22 20 30 46 45 55 58 63 42 34 38 29 32 30 38 28 32 34 41 54 69 61 61 76 53 57 40 38 36 59 60 58 49
10 8 9 11 10 11 11 18 19 22 22 25 19 25 72 57 44 43 44 34 33 35 27 24 29 36 37 30 33 37 57 69 66 60 61 64 57 74 41 46 46 42 43 45
9 9 8 9 12 11 12 16 22 25 22 27 54 26 59 60 28 36 47 37 35 37 23 23 30 38 37 34 35 38 52 64 60 59 58 61 61 67 58 53 45 54 35 36
11 11 8 7 10 12 13 13 18 37 51 50 53 32 72 24 25 23 31 35 32 41 30 25 24 35 41 36 35 38 50 59 58 57 64 68 62 49 48 55 70 41 63 38
11 12 7 7 8 9 13 15 10 19 20 28 50 45 29 22 29 27 24 28 35 31 32 40 24 26 31 35 37 39 48 53 52 51 57 70 69 59 54 61 53 42 57 60
12 20 11 10 10 10 12 14 14 16 45 43 58 84 63 35 36 34 29 26 30 33 37 45 25 25 29 35 33 37 42 50 49 47 49 50 58 61 56 58 67 54 49 53
10 14 27 15 16 43 15 18 17 16 31 62 62 78 30 43 39 34 31 29 30 31 38 38 38 30 30 32 40 36 40 46 48 45 48 50 48 49 60 56 56 59 56 56
12 12 21 21 21 33 46 37 25 33 35 53 61 90 36 38 39 34 32 32 36 44 57 55 82 42 46 46 47 42 40 41 44 44 50 47 47 47 46 56 56 70 65 59
15 12 17 19 15 24 27 33 41 71 52 41 54 46 28 38 45 44 41 36 40 50 67 76 87 71 52 50 48 44 44 42 42 45 44 45 47 46 48 57 51 66 74 67
24 12 16 22 34 37 29 25 44 71 85 40 25 35 69 49 53 55 54 47 39 53 62 85 92 83 50 52 74 55 45 44 48 45 43 50 50 47 45 50 52 52 60 65
13 20 18 18 20 22 37 45 23 18 27 37 76 61 58 57 74 68 66 53 46 55 68 85 88 77 60 66 58 60 68 55 56 52 54 57 60 58 58 61 61 57 58 59
13 20 20 21 16 16 17 14 14 17 18 46 74 83 46 60 67 73 70 78 77 56 58 80 74 90 80 74 82 71 63 68 63 64 60 60 63 68 70 70 71 70 65 66
19 19 24 23 28 34 22 17 17 17 18 22 30 50 42 54 68 78 75 76 86 92 76 56 65 73 85 89 84 84 93 77 76 67 67 67 68 72 73 73 76 76 74 79
19 25 21 23 40 57 42 20 22 24 23 22 25 37 42 51 63 64 61 68 77 86 96 90 93 70 73 85 90 90 85 94 90 74 74 84 69 68 71 71 72 80 82 86
12 20 22 22 23 22 23 23 21 22 23 24 25 33 34 37 46 60 53 57 62 72 80 89 94 92 90 87 78 89 92 92 94 88 73 91 70 85 81 79 80 89 89 86
12 19 23 23 27 29 44 24 19 18 26 31 24 28 30 29 29 59 51 49 53 56 64 76 76 82 85 87 85 91 98 91 95 93 83 75 94 82 81 88 92 89 87 86
20 23 22 20 21 19 23 20 18 24 34 28 25 30 30 36 50 52 47 49 50 53 60 63 71 76 82 87 92 97 86 94 95 97 95 92 89 95 93 93 92 94 94 95
26 27 20 21 27 40 24 23 23 37 30 29 31 35 41 42 45 49 49 47 51 57 61 64 71 80 81 89 96 96 99 93 91 96 98 97 98 98 98 97 98 98 99 99
22 19 22 26 52 32 26 28 26 24 29 31 34 32 33 38 38 43 46 45 45 57 64 63 70 80 90 93 96 97 96 89 95 97 98 97 97 97 93 91 92 92 96 98
27 20 21 23 22 24 22 23 22 24 25 25 26 25 25 28 34 39 41 43 47 53 63 64 73 84 95 95 97 98 98 92 91 90 88 92 91 88 88 86 86 93 92 96
36 37 32 25 30 26 24 22 23 24 24 24 24 24 24 24 30 34 41 48 50 62 67 68 74 83 91 95 96 97 96 95 94 93 89 84 84 76 81 91 96 93 97 88
16 25 24 24 28 32 24 25 22 25 26 28 28 30 26 25 32 36 42 46 54 66 64 72 72 73 76 88 90 92 96 96 95 96 93 98 98 98 96 90 91 93 93 92
Wind_Speed
15 13 15 17 17 3 4 3 13 6 8 5 7 9 18 17 14 14 11 16 8 20 22 12 9 13 15 15 10 9 8 6 9 9 9 7 9 7 7 5 7 5 6 3
12 16 15 18 12 5 7 7 5 7 6 6 7 5 14 21 21 17 15 13 15 14 15 22 9 14 16 17 14 13 12 11 9 9 8 7 7 8 5 4 7 7 6 4
13 14 15 6 4 9 12 1 6 9 11 9 8 11 14 15 17 18 16 15 19 18 21 18 14 14 14 15 15 14 13 13 11 9 7 7 6 4 3 6 7 7 6 7
13 3 5 9 14 13 14 7 9 2 9 2 14 4 13 17 15 17 16 22 20 16 10 14 21 13 15 15 14 17 15 13 10 10 6 7 7 7 6 5 6 10 8 8
9 3 9 15 16 12 13 9 11 6 9 15 14 8 7 18 16 18 22 26 24 15 23 16 22 16 13 16 14 15 13 12 12 10 5 10 9 7 8 8 8 5 7 6
6 5 11 13 10 7 12 4 7 9 13 13 14 12 2 8 15 18 24 26 24 20 19 18 18 19 12 16 15 15 15 13 12 12 8 9 8 7 7 6 7 8 9 8
11 11 9 8 8 12 12 14 12 13 11 2 11 9 8 15 8 19 26 24 20 21 17 18 16 18 15 15 15 15 16 14 14 13 12 10 10 7 4 5 8 7 8 9
9 15 16 13 16 13 15 18 12 2 11 5 15 5 3 7 3 5 25 25 22 20 14 16 17 17 18 17 15 15 17 15 15 14 12 10 11 5 6 9 3 6 3 4
3 4 12 10 14 16 12 15 21 2 17 7 4 5 11 8 7 5 10 17 20 18 15 11 22 17 18 15 16 15 16 15 16 16 12 10 9 11 10 6 8 5 4 2
3 3 6 10 9 11 16 9 12 7 10 7 11 12 3 6 9 7 3 12 18 20 19 11 19 19 16 15 16 15 15 16 15 16 14 12 13 13 10 5 8 6 4 7
13 4 11 9 11 7 7 13 15 4 5 7 3 1 6 5 9 8 6 4 8 13 18 17 8 16 17 17 14 16 15 15 15 15 13 13 13 12 10 8 8 9 8 6
5 13 1 10 7 10 9 14 14 10 9 9 4 4 19 7 10 10 8 4 11 10 3 2 8 7 11 10 13 15 15 15 14 14 12 13 12 12 13 13 12 8 10 10
12 10 9 16 19 18 16 18 5 8 10 4 4 4 11 4 10 11 10 7 8 11 5 3 6 15 6 8 11 14 13 14 14 13 14 13 13 13 12 10 11 10 11 11
6 15 17 1 4 8 20 4 21 16 5 13 11 6 16 5 11 10 10 9 7 14 13 5 4 14 6 7 7 7 14 12 12 13 14 12 13 13 13 11 10 11 10 10
9 13 11 3 11 23 13 6 19 11 3 17 6 14 8 8 8 12 8 8 6 11 13 8 8 9 4 5 10 5 4 8 10 11 10 11 10 11 11 10 9 10 10 10
9 9 7 13 11 10 15 14 6 9 4 21 24 18 12 9 8 10 9 8 12 9 13 16 15 9 1 4 2 4 4 3 3 6 8 7 6 8 8 8 9 10 10 10
2 12 6 12 8 16 15 13 10 8 10 6 9 7 11 7 8 7 7 7 7 9 8 8 6 6 5 3 2 2 0 6 3 5 7 9 10 10 10 11 10 10 11 10
7 8 10 5 4 6 13 3 1 11 4 7 4 10 11 8 9 5 5 6 6 6 6 5 6 2 4 4 4 4 5 3 8 5 8 7 8 9 8 9 10 10 10 11
6 9 9 11 9 4 14 7 6 6 7 1 3 10 5 7 10 7 7 4 6 5 5 2 4 5 3 4 4 5 5 8 8 8 8 6 9 7 3 7 8 7 9 10
13 8 11 10 11 11 7 4 8 5 10 17 2 6 4 4 6 8 5 4 6 5 5 3 0 3 4 4 4 7 11 12 11 7 6 4 2 4 5 4 5 2 6 9
9 9 12 12 11 5 12 7 5 5 4 9 5 7 3 6 10 7 4 5 6 5 3 4 4 4 4 5 6 6 5 10 7 5 4 2 2 2 3 4 3 3 3 3
5 7 10 10 11 6 3 3 3 8 2 4 6 5 5 6 4 6 3 3 6 4 4 5 5 6 6 7 6 2 5 3 9 8 7 3 1 4 4 5 5 5 7 7
8 10 7 7 3 4 2 3 7 4 4 2 4 4 4 3 2 4 2 4 5 5 4 5 6 6 7 8 8 5 5 5 5 8 9 9 6 6 5 6 5 5 5 4
10 4 5 6 6 6 3 5 1 3 3 5 4 4 1 1 3 4 3 3 4 8 4 5 6 8 8 8 7 6 5 5 7 9 9 7 7 8 8 6 5 5 5 4
10 0 12 8 9 5 6 6 6 5 6 6 5 4 3 0 2 1 5 4 5 5 4 5 6 7 6 5 6 6 6 5 7 8 7 7 5 6 8 8 6 5 5 3
6 9 10 3 3 8 3 9 7 8 8 7 6 4 3 1 3 1 4 4 7 4 4 6 6 6 7 5 6 7 5 5 6 7 5 5 4 5 5 6 8 14 9 11
Wind_Direction
206 218 214 211 233 47 214 256 95 279 128 209 232 185 169 175 193 196 246 261 225 220 150 158 198 155 151 143 153 150 149 171 167 174 182 170 171 173 177 171 110 171 126 107
188 224 227 247 229 215 237 250 166 108 156 235 247 254 167 184 197 191 221 248 273 238 156 161 226 169 160 156 168 147 165 179 181 182 195 181 175 170 177 133 158 177 185 176
225 208 241 188 232 247 243 280 5 104 234 223 259 242 185 184 197 184 210 234 255 265 154 164 184 180 167 159 154 159 177 175 212 161 169 187 178 142 154 145 174 185 197 200
238 212 132 213 239 225 256 341 171 41 270 127 248 316 198 184 192 189 201 226 237 237 181 215 164 213 175 162 174 161 178 178 195 185 144 171 203 190 195 186 193 152 196 217
178 165 207 229 226 210 106 226 249 259 277 274 245 240 130 168 203 187 200 209 225 242 228 189 159 187 179 159 174 168 179 169 187 209 251 172 209 194 175 199 124 267 176 207
333 231 213 228 230 248 264 212 243 239 248 259 257 226 137 210 200 189 194 204 210 238 195 183 172 161 201 162 173 169 166 182 190 200 193 231 229 280 188 193 158 207 176 190
198 197 228 255 235 215 234 234 234 221 209 265 26 292 99 211 156 176 188 210 198 225 205 192 172 155 169 176 179 166 172 182 190 196 195 196 236 237 111 180 213 244 201 184
216 177 196 182 241 217 214 245 255 22 277 34 322 219 177 89 90 212 177 191 209 194 227 187 189 163 165 200 181 178 169 187 190 191 201 195 209 214 227 200 281 230 308 211
222 169 159 195 211 249 201 228 264 95 245 237 314 102 184 64 82 133 191 179 195 199 210 277 181 183 174 178 177 193 169 189 194 192 197 185 205 220 213 265 201 225 272 5
358 267 187 173 229 235 269 313 236 196 234 267 189 275 108 27 52 86 171 177 176 193 211 190 219 178 186 174 179 198 180 187 196 200 198 200 197 215 233 196 234 272 252 253
302 232 266 151 211 8 220 234 254 291 116 265 13 313 9 69 50 38 126 188 147 221 202 196 248 174 187 182 176 188 189 185 197 200 197 206 202 200 202 222 226 219 238 244
303 313 331 356 138 168 255 280 346 353 319 57 45 245 318 56 53 44 79 88 113 146 178 306 348 197 177 179 173 185 186 191 195 199 200 202 215 214 203 200 209 199 220 235
338 262 258 209 195 162 204 136 183 67 296 59 140 218 241 113 71 43 47 82 112 129 118 331 21 285 152 176 169 182 194 196 192 200 197 211 201 211 226 204 215 198 186 222
289 274 283 126 258 261 288 292 147 145 202 273 231 240 293 91 90 66 21 354 91 159 158 156 353 275 19 347 20 205 186 199 201 193 207 203 215 218 222 221 224 215 200 217
261 278 307 305 171 214 168 276 275 222 73 210 353 314 91 65 55 63 21 357 114 133 170 157 199 263 283 307 295 303 353 195 190 203 206 203 204 216 223 226 224 226 228 214
260 274 284 290 276 264 268 235 281 310 255 114 139 232 68 82 57 55 47 20 25 90 133 179 190 147 179 210 279 266 222 313 279 223 236 241 230 231 239 240 247 234 229 226
338 291 276 261 45 338 262 249 240 222 240 251 327 113 113 99 79 63 47 54 47 19 5 118 142 168 172 197 192 233 14 346 233 243 246 224 228 236 232 233 230 227 230 233
260 246 277 267 221 224 290 85 319 279 346 315 261 73 68 99 100 88 72 57 54 62 29 18 5 208 224 253 248 300 249 262 290 246 258 239 223 226 227 241 245 238 232 228
274 269 248 261 245 222 204 191 220 240 288 354 257 113 110 118 143 109 93 66 65 76 92 42 314 334 20 286 220 216 252 225 230 255 232 271 217 225 267 239 249 251 245 231
269 193 279 253 290 257 59 38 47 353 273 173 213 89 5 350 256 94 113 103 94 76 86 111 145 236 235 241 253 244 244 217 212 214 245 250 213 251 263 279 275 287 233 236
214 247 232 226 249 272 122 117 120 241 66 42 43 65 4 32 55 100 93 94 75 46 60 55 38 22 327 317 289 285 213 197 189 156 221 202 10 212 354 313 302 237 227 175
227 212 237 237 262 253 59 147 277 65 118 99 73 67 76 69 89 85 107 94 82 53 33 38 38 27 358 347 317 346 28 351 187 179 182 132 24 58 75 88 64 63 66 52
247 268 333 323 79 40 110 37 77 301 151 64 82 103 112 130 127 94 77 57 83 63 40 47 38 35 18 11 357 68 29 48 62 85 109 103 105 82 102 103 109 85 94 102
241 234 255 279 182 162 184 106 165 238 99 118 121 121 76 63 121 146 146 95 48 84 44 57 52 41 26 15 16 22 13 61 100 111 105 115 111 112 96 76 86 102 95 89
102 213 288 223 172 168 199 219 198 200 148 138 122 94 79 60 136 139 140 126 92 79 90 74 76 75 46 24 35 34 30 47 80 89 94 104 97 95 88 66 33 84 58 24
231 216 237 269 110 199 264 181 204 190 180 168 152 117 79 86 104 163 124 93 108 114 118 113 97 89 84 50 58 63 63 73 88 88 77 76 88 98 102 107 89 53 57 52